Regional Weather Roundup
Issued by NWS San Angelo, TX

Home | Current Version | Previous Version | Text Only | Print | Product List | Glossary On
Versions: 1 2 3 4 5 6 7 8 9 10 11 12 13 14 15 16 17 18 19 20 21 22 23 24 25 26 27 28 29 30 31 32 33 34 35 36 37 38 39 40 41 42 43 44 45 46 47 48 49 50
713
ASUS44 KSJT 110611
RWRSJT
WEST CENTRAL TEXAS REGIONAL WEATHER ROUNDUP
NATIONAL WEATHER SERVICE SAN ANGELO TX
1200 AM CST THU FEB 11 2016

NOTE: "FAIR" INDICATES FEW OR NO CLOUDS BELOW 12,000 FEET WITH NO
SIGNIFICANT WEATHER AND/OR OBSTRUCTIONS TO VISIBILITY.

TXZ049-054-064>066-071>073-076>078-098-099-113-114-127-128-139-140-
154-155-168>170-110700
...LOCATIONS ACROSS WEST CENTRAL TEXAS...

CITY           SKY/WX    TMP DP  RH WIND       PRES   REMARKS
SAN ANGELO     CLEAR     50  25  37 SW7       30.14F
ABILENE        CLEAR     54  25  32 SW9       30.10F
DYESS AFB      CLEAR     60  24  25 S16       30.08F
JUNCTION       CLEAR     48  27  44 CALM      30.19S
SWEETWATER     CLEAR     58  21  24 SW20      30.13F
BROWNWOOD      CLEAR     54  27  35 S5        30.13S
COLEMAN        CLEAR     57  25  28 SW14      30.12F
SONORA         CLEAR     50  25  37 CALM      30.23F
OZONA          FAIR      45  27  49 S7        30.22S
BRADY          NOT AVBL
$$

TEXAS PANHANDLE/OKLAHOMA PANHANDLE

CITY           SKY/WX    TMP DP  RH WIND       PRES   REMARKS
AMARILLO       CLEAR     41  17  38 SW7       30.07S WCI  36
BORGER         CLEAR     47  14  26 E3        30.07R
CANADIAN       CLEAR     35  18  50 CALM      30.05R
DALHART        CLOUDY    40  13  33 N10       30.09R WCI  33
DUMAS          CLOUDY    42  14  31 N14G20    30.07R WCI  35
GUYMON         NOT AVBL
HEREFORD       NOT AVBL
PAMPA          CLEAR     52  13  21 CALM      30.07R
PERRYTON       CLOUDY    40  22  49 N10       30.07R WCI  33
$$

SOUTHERN PANHANDLE/SOUTH PLAINS/ROLLING PLAINS

CITY           SKY/WX    TMP DP  RH WIND       PRES   REMARKS
LUBBOCK        CLEAR     45  18  34 W9        30.10F
SNYDER           N/A     48  22  35 S9        30.12F
CHILDRESS      CLEAR     48  21  34 W8        30.01S
SEMINOLE       CLEAR     47  20  33 W9        30.16S
$$

PERMIAN BASIN

CITY           SKY/WX    TMP DP  RH WIND       PRES   REMARKS
MIDLAND        CLEAR     55  22  27 S14       30.15F
ODESSA         CLEAR     55  20  25 S14       30.16F
WINK           CLOUDY    50  22  33 SW7       30.15S
$$

FAR WEST/SOUTHWEST MOUNTAINS/TRANS PECOS

CITY           SKY/WX    TMP DP  RH WIND       PRES   REMARKS
ALPINE         CLEAR     47  14  26 SW9       30.31F
DRYDEN           N/A     50  23  34 NW7       30.17F
EL PASO        PTCLDY    51  17  26 S6        30.22F
FORT STOCKTON  CLEAR     52  19  27 SW15      30.18F
GUADALUPE PASS CLEAR     50  13  22 SW14      30.27S
MARFA          CLOUDY    30  13  49 NW5       30.29F WCI  25
PECOS          CLEAR     39  20  46 SW7       30.16F WCI  34
$$

DALLAS/FORT WORTH METROPLEX

CITY           SKY/WX    TMP DP  RH WIND       PRES   REMARKS
DFW AIRPORT    PTCLDY    50  34  54 SW9       30.02F
FTW MEACHAM    CLEAR     59  33  37 S9        30.03F
DAL-EXECUTIVE  CLEAR     62  33  33 SW10G21   30.03F
GRAND PRAIRIE  CLEAR     55  35  46 S9        30.06F
ADDISON        CLEAR     60  37  43 S8        30.05F
MESQUITE       CLEAR     55  35  47 S12       30.05F
LANCASTER      CLEAR     55  33  44 SW9       30.06F
$$

NORTH CENTRAL TEXAS

CITY           SKY/WX    TMP DP  RH WIND       PRES   REMARKS
SHRMAN/DENISON CLEAR     58  34  40 S18G25    30.00S
GAINESVILLE    CLEAR     48  32  52 S5        30.02S
BRIDGEPORT     CLEAR     60  32  34 SW14      30.04S
DENTON         CLEAR     57  33  40 SW12      30.01F
WAXAHACHIE     CLEAR     59  36  43 SW13G18   30.07F
GRANBURY       CLEAR     49  33  54 CALM      30.07F
$$

WESTERN NORTH TEXAS

CITY           SKY/WX    TMP DP  RH WIND       PRES   REMARKS
WICHITA FALLS  CLEAR     54  27  35 SW14      29.97S
VERNON         CLEAR     55  20  25 SW12      29.99F
BRECKENRIDGE   CLEAR     59  25  27 SW9G16    30.07S
COMANCHE       CLEAR     62  29  29 SW18G24   30.10S
$$

CENTRAL AND SOUTH CENTRAL TEXAS

CITY           SKY/WX    TMP DP  RH WIND       PRES   REMARKS
AUSTIN/BERGSTM CLEAR     52  34  50 S10       30.17F
WACO           CLEAR     56  34  43 SW14      30.10S
HILLSBORO      CLEAR     52  34  49 S7        30.09F
TEMPLE         CLEAR     50  35  56 S10       30.13F
KILLEEN-GRAY   CLEAR     60  29  31 SW8       30.12F
FORT HOOD      CLEAR     57  31  36 SW6       30.11F
GEORGETOWN     CLEAR     54  30  40 SW7       30.15F
LAGO VISTA     FAIR      60  30  31 S7        30.17S
SAN MARCOS     CLEAR     48  36  61 SW9       30.20F
NEW BRAUNFELS  CLEAR     48  31  51 SW3       30.19S
RANDOLPH AFB   CLEAR     54  39  55 SW8       30.20S
SAN ANTONIO    CLEAR     57  38  48 S7        30.20F
STINSON        CLEAR     57  39  51 S7        30.19S
PLEASANTON     NOT AVBL
LA GRANGE      CLEAR     53  46  75 S7        30.17F
GIDDINGS       CLEAR     52  43  71 SW7       30.21F
$$

EAST TEXAS

CITY           SKY/WX    TMP DP  RH WIND       PRES   REMARKS
PARIS          CLEAR     55  34  44 SW13      30.00F
CLARKSVILLE    NOT AVBL
TYLER          CLEAR     55  35  47 S12       30.08F
LONGVIEW       CLEAR     55  35  47 SW14      30.07F
PALESTINE      CLEAR     55  40  56 S8        30.14S
NACOGDOCHES    CLEAR     48  37  66 S8        30.14F
$$

TEXAS HILL COUNTRY AND EDWARDS PLATEAU

CITY           SKY/WX    TMP DP  RH WIND       PRES   REMARKS
LLANO          CLEAR     46  32  57 CALM      30.19S
HORSESHOE BAY  FAIR      57  30  36 CALM      30.16S
KERRVILLE      CLEAR     41  33  72 N3        30.20F
FREDERICKSBRG  CLEAR     40  30  65 CALM      30.19F
ROCKSPRINGS    CLEAR     57  27  30 S9        30.23F
HONDO          CLEAR     41  25  53 NE5       30.22S WCI  38
UVALDE         CLEAR     52  28  40 CALM      30.21S
DEL RIO        CLEAR     54  27  35 E6        30.19S
$$

SOUTHEAST TEXAS

CITY           SKY/WX    TMP DP  RH WIND       PRES   REMARKS
COLLEGE STN    CLEAR     53  43  68 S8        30.17F
CALDWELL       CLEAR     52  43  71 S8        30.19F
CROCKETT       CLEAR     48  37  66 S5        30.18F
BRENHAM        CLEAR     55  47  72 S7        30.19F
HUNTSVILLE     CLEAR     56  44  64 S10G18    30.16F
CONROE         CLEAR     55  46  71 SW9       30.20F
HOUSTON BUSH   CLEAR     57  47  69 SW6       30.20F
HOUSTON HOBBY  CLEAR     52  48  86 S6        30.21F
PERLAND        CLEAR     53  50  89 SW5       30.23F
WHARTON        CLEAR     49  46  90 S7        30.22F
$$

THE UPPER TEXAS COAST

CITY           SKY/WX    TMP DP  RH WIND       PRES   REMARKS
ORANGE         CLEAR     53  47  82 SW7       30.23F
PORT ARTHUR    CLEAR     53  50  89 S8        30.21F
GALVESTON      CLEAR     59  56  89 S14       30.23F
ANGLETON       CLEAR     56  53  90 S6        30.22F
BAY CITY       CLEAR     52  51  97 S6        30.22F
$$

TEXAS COASTAL BEND, RIO GRANDE PLAINS DEEP SOUTH TEXAS

CITY           SKY/WX    TMP DP  RH WIND       PRES   REMARKS
VICTORIA       CLEAR     53  49  86 S8        30.22F
BEEVILLE       FAIR      53  45  73 S8        30.23S
ROCKPORT       CLEAR     63  52  67 S12G21    30.23F
PORT ARANSAS   CLEAR     60  55  84 S15       30.23F
PORT LAVACA    CLEAR     57  53  86 S10       30.23F
CORPUS CHRISTI CLEAR     51  42  71 S9        30.24S
KINGSVILLE NAS CLEAR     51  43  74 S10       30.24S
COTULLA        CLEAR     56  28  34 S7        30.21F
LAREDO         CLEAR     60  31  33 SE12      30.22F
BROWNSVILLE    CLEAR     57  53  86 S10       30.29F
PORT ISABEL    CLEAR     57  51  80 S8        30.27F
HEBBRONVILLE   NOT AVBL
MCALLEN        CLEAR     57  45  64 SE10      30.27F
WESLACO        CLEAR     57  48  70 S9        30.27F
FALFURRIAS     CLEAR     60  42  51 S13       30.24F
EDINBURG       CLEAR     58  47  67 S7        30.27F
$$




USA.gov is the U.S. government's official web portal to all federal, state and local government web resources and services.